Location: Austin
(30.3000°N, 97.7500°W)
Time: 08:04:49
(UTC-06:00)

Resurs 01 Rocket - Pass Details

Date: 10 January 2026
Orbit: 626 x 636 km, 97.7° (Epoch: 22 January)

Event Time Altitude Azimuth Distance (km) Brightness Sun altitude
Rises 20:06:50 0° 183° (S) 2,899 5.1 -29.2°
Reaches altitude 10° 20:09:07 10° 190° (S) 1,995 4.3 -29.7°
Enters shadow 20:11:25 27° 210° (SSW) 1,198 3.3 -30.2°
Exits shadow 20:19:01 - 338° (NNW) 2,658 5.0 -31.8°
Sets 20:19:39 0° 340° (NNW) 2,913 5.2 -31.9°
